CZ-3B DEB, 40842

Orbit data source: Space-Track

CZ-3B DEB, 40842 is space debris in HEO originally from a launch on Mon, 19 Dec 2011 UTC launched from the Xichang Space Center, China (XSC). Debris objects in space refer to the collection of defunct objects orbiting the Earth. Examples of debris include non-operational satellites, rocket bodies, and fragments generated from explosions, collisions, or faulty payload assembly.

Loading next visibility...
Identifier
40842, 2011-077X
Orbit
HEO
Country
Flag of CNCN / PRC
Related business
Manufacturer
CALT
Mission
Spacecraft
Bus & Motor
Unknown
Mass
Unknown
Launch date (UTC)
2011-12-19 (14 years ago)
Launch vehicle
Unknown
Launch site
Xichang Space Center, China (XSC)
Object type
Payload
Rocket body
Debris
Shape & HBR
Unknown shape, 0.2 m
Radar Cross Section
Medium (>0.1 m² and <1 m²)

Expand to show TLE details & history
Last TLE update: 2 days ago

TLE from 2 days ago
0 CZ-3B DEB
1 40842U 11077X   26104.64111691  .00000052  00000-0  19640-2 0  9995
2 40842  22.7420  49.0866 7548992  65.5929 352.5495  1.76768957 79061
Epoch: 2026-04-14T15:23Z
TLE epoch observation values (Epoch: 2026-04-14T15:23:12.501Z)
Latitude
0.00021°
Longitude
-24.65856°
Altitude
3,150.645 km
Speed
8.358 km/s
True Right ascension
03h 15m 49s
True Declination
0° 00' 01"
Sunlit
Object was in daylight at epoch
Visualization orbit readout
Latitude
Unknown
Longitude
Unknown
Altitude
Unknown
Speed
Unknown
Apparent Right ascension
Unknown
Apparent Declination
Unknown
Sunlit
N/A
Visualization observer readout
Local Sidereal Time
04:16:00
Azimuth
Unknown
Elevation
Unknown
Doppler factor
Unknown
Orbital elements
Apogee altitude
44,334.162 km
Perigee altitude
704.677 km
Semi-major axis
28,897.557 km
Eccentricity
0.7549
Inclination
22.742°
RAAN
49.0866°
Arg. of periapsis
65.5929°
True anomaly
294.03816°
Mean anomaly
352.5495°
Eccentric anomaly
332.73568°
Mean motion
0.44183 °/min
Orbital period
814.8 mins
BSTAR
0.001964
Loading maneuver chart data...
Computing Atmospheric mass density...
Loading historical data...
Loading historical data...
Loading historical data...
Loading historical data...
Loading historical data...
Loading historical data...
Loading historical data...

Documentation

Showing up to 5 results
|